Location: Wingville
(42.9917°N, 90.4915°W)
Time: 01:18:51
(UTC+00:00)

EO-79 - Pass Details

Date: 29 June 2022
Orbit: 588 x 603 km, 98.0° (Epoch: 15 August)

Event Time Altitude Azimuth Distance (km) Brightness Sun altitude
Rises 08:40:42 0° 360° (N) 2,852 ? -14.8°
Reaches altitude 10° 08:43:10 10° 347° (NNW) 1,948 ? -14.5°
Maximum altitude 08:46:35 24° 293° (WNW) 1,247 ? -14.1°
Enters shadow 08:48:39 17° 253° (WSW) 1,540 ? -13.9°
